Regional Weather Roundup
Issued by NWS

Home | Current Version | Previous Version | Text Only | Print | Product List | Glossary On
Versions: 1 2 3 4 5 6 7 8 9 10 11 12 13 14 15 16 17 18 19 20 21 22 23 24 25 26 27 28 29 30 31 32 33 34 35 36 37 38 39 40 41 42 43 44 45 46 47 48 49 50
000
ASUS43 KMKX 241221
RWRWI

WISCONSIN REGIONAL WEATHER ROUNDUP
NATIONAL WEATHER SERVICE MILWAUKEE/SULLIVAN WI
700 AM CDT FRI MAR 24 2017

NOTE: "FAIR" INDICATES FEW OR NO CLOUDS BELOW 12,000 FEET WITH NO
SIGNIFICANT WEATHER AND/OR OBSTRUCTIONS TO VISIBILITY.

WIZ001-002-006>008-014>016-023>028-241300-
NORTHWEST WISCONSIN

CITY           SKY/WX    TMP DP  RH WIND       PRES   REMARKS
SUPERIOR ARPT  FOG       32  32 100 CALM      29.95S VSB 1
6HR MIN TEMP:  32; 6HR MAX TEMP:  33;

ASHLAND        CLOUDY    33  32  96 NW3       29.93F FOG
6HR MIN TEMP:  32; 6HR MAX TEMP:  33;

HAYWARD        CLOUDY    35  32  88 CALM      29.91R FOG
6HR MIN TEMP:  34; 6HR MAX TEMP:  35; 6HR PCP: TRACE;

SIREN          CLOUDY    34  33  97 CALM      29.92R FOG
6HR MIN TEMP:  33; 6HR MAX TEMP:  34; 6HR PCP:  0.01;

CUMBERLAND     DRIZZLE   34  32  93 N6        29.89S WCI  29
RICE LAKE      DRIZZLE   35  35  99 CALM      29.91R
6HR MIN TEMP:  35; 6HR MAX TEMP:  36;

CHETEK         CLOUDY    35  35 100 N3        29.88F FOG
6HR MIN TEMP:  35; 6HR MAX TEMP:  36; 6HR PCP:  0.08;

LADYSMITH      CLOUDY    35  35  98 CALM      29.91R FOG
6HR MIN TEMP:  35; 6HR MAX TEMP:  36; 6HR PCP:  0.03;

EAU CLAIRE     LGT RAIN  38  38 100 CALM      29.89S FOG
6HR MIN TEMP:  37; 6HR MAX TEMP:  39; 6HR PCP:  0.06;

MENOMONIE      RAIN      38  37  96 N3        29.88R
6HR MIN TEMP:  38; 6HR MAX TEMP:  39; 6HR PCP:  0.02;

NEW RICHMOND   CLOUDY    36  36 100 N8        29.89R FOG     WCI  29
6HR MIN TEMP:  36; 6HR MAX TEMP:  37; 6HR PCP:  0.06;

OSCEOLA        CLOUDY    37  37 100 N5        29.94R FOG     WCI  33
6HR MIN TEMP:  37; 6HR MAX TEMP:  37; 6HR PCP:  0.02;

$$

WIZ003>005-009-010-017-018-241300-
NORTH CENTRAL WISCONSIN

CITY           SKY/WX    TMP DP  RH WIND       PRES   REMARKS
MANITOWISH WTR CLOUDY    32  32 100 CALM      29.87F FOG
6HR MIN TEMP:  32; 6HR MAX TEMP:  32; 6HR PCP:  0.06;

ARBOR VITAE    MIX PCPN  34  33  96 N7        29.85F WCI  28
6HR MIN TEMP:  34; 6HR MAX TEMP:  34; 6HR PCP:  0.01;

WOODRUFF       MIX PCPN  34  33  96 N7        29.85F WCI  28
6HR MIN TEMP:  34; 6HR MAX TEMP:  34; 6HR PCP:  0.01;

RHINELANDER    LGT RAIN  34  33  96 N3        29.85S FOG
6HR MIN TEMP:  33; 6HR MAX TEMP:  34; 6HR PCP:  0.03;

EAGLE RIVER    MIX PCPN  32  32 100 N6        29.85F WCI  26
6HR MIN TEMP:  32; 6HR MAX TEMP:  32;

LAND O LAKES   CLOUDY    33  33 100 N3        29.89R FOG
6HR MIN TEMP:  32; 6HR MAX TEMP:  33;

PHILLIPS       DRIZZLE   33  33 100 N5        29.87R WCI  28
6HR MIN TEMP:  33; 6HR MAX TEMP:  35; 6HR PCP:  0.02;

TOMAHAWK       LGT RAIN  32  32  99 CALM      29.89R
6HR MIN TEMP:  32; 6HR MAX TEMP:  32;

MEDFORD        RAIN      34  33  99 S5        29.88R WCI  30
6HR MIN TEMP:  34; 6HR MAX TEMP:  34; 6HR PCP:  0.12;

MERRILL        LGT RAIN  33  33 100 CALM      29.87S
6HR MIN TEMP:  33; 6HR MAX TEMP:  34; 6HR PCP:  0.13;

$$

WIZ029-030-035-036-043>047-241300-
CENTRAL WISCONSIN

CITY           SKY/WX    TMP DP  RH WIND       PRES   REMARKS
WAUSAU         CLOUDY    34  34 100 CALM      29.86R FOG
6HR MIN TEMP:  34; 6HR MAX TEMP:  36; 6HR PCP:  0.26;

MOSINEE        DRIZZLE   34  34 100 NE3       29.88R
MARSHFIELD     CLOUDY    38  38 100 N6        29.86R FOG     WCI  33
6HR MIN TEMP:  35; 6HR MAX TEMP:  38; 6HR PCP:  0.38;

STEVENS POINT  CLOUDY    35  35 100 CALM      29.86R FOG
6HR MIN TEMP:  34; 6HR MAX TEMP:  36; 6HR PCP:  0.16;

WAUPACA        CLOUDY    38  36  92 CALM      29.88S FOG
6HR MIN TEMP:  37; 6HR MAX TEMP:  38;

WAUTOMA        CLOUDY    38  36  92 NE3       29.86F FOG
6HR MIN TEMP:  38; 6HR MAX TEMP:  40; 6HR PCP:  0.06;

WISC RAPIDS    CLOUDY    38  38 100 E3        29.87S FOG
6HR MIN TEMP:  37; 6HR MAX TEMP:  40; 6HR PCP:  0.09;

CAMP DOUGLAS   CLOUDY    39  37  93 CALM      29.85S
                                      6HR PCP: TRACE;

$$

WIZ011>013-019>022-031-037>040-048>050-241300-
NORTHEAST WISCONSIN

CITY           SKY/WX    TMP DP  RH WIND       PRES   REMARKS
ANTIGO         LGT RAIN  32  32 100 S5        29.87R WCI  28
6HR MIN TEMP:  32; 6HR MAX TEMP:  32; 6HR PCP:  0.11;

SHAWANO        DRIZZLE   36  34  93 CALM      29.90S
6HR MIN TEMP:  35; 6HR MAX TEMP:  38; 6HR PCP:  0.12;

OCONTO         CLOUDY    34  34  98 CALM      29.91R
6HR MIN TEMP:  34; 6HR MAX TEMP:  35; 6HR PCP:  0.08;

STURGEON BAY   LGT RAIN  36  36 100 S3        29.91S FOG
6HR MIN TEMP:  36; 6HR MAX TEMP:  37; 6HR PCP:  0.15;

GREEN BAY      CLOUDY    37  37 100 N5        29.89S FOG     WCI  33
6HR MIN TEMP:  37; 6HR MAX TEMP:  38; 6HR PCP:  0.07;

MANITOWOC      CLOUDY    38  35  89 S6        29.89F WCI  33
6HR MIN TEMP:  37; 6HR MAX TEMP:  39; 6HR PCP: TRACE;

APPLETON       CLOUDY    39  37  93 CALM      29.86S
CLINTONVILLE   CLOUDY    34  34 100 NE3       29.89R FOG
OSHKOSH        MOCLDY    38  34  85 S8        29.87F WCI  32
6HR MIN TEMP:  37; 6HR MAX TEMP:  39; 6HR PCP:  0.01;

$$

WIZ032>034-041-042-053>061-241300-
SOUTHWEST WISCONSIN

CITY           SKY/WX    TMP DP  RH WIND       PRES   REMARKS
LA CROSSE      CLOUDY    41  39  93 NW9       29.84R FOG
6HR MIN TEMP:  40; 6HR MAX TEMP:  42; 6HR PCP:  0.04;

SPARTA         CLOUDY    39  38  95 CALM      29.85R
6HR MIN TEMP:  38; 6HR MAX TEMP:  41; 6HR PCP:  0.05;

VIROQUA        CLOUDY    41  39  92 SE9       29.81S
6HR MIN TEMP:  39; 6HR MAX TEMP:  42;

BOSCOBEL       CLOUDY    38  36  92 CALM      29.85S FOG
6HR MIN TEMP:  37; 6HR MAX TEMP:  45; 6HR PCP: TRACE;

PRAIRIE DU CHI CLOUDY    39  36  89 SE3       29.83S
6HR MIN TEMP:  39; 6HR MAX TEMP:  43;

PLATTEVILLE    PTCLDY    44  43  95 NE6       29.85R
6HR MIN TEMP:  42; 6HR MAX TEMP:  46;

$$

WIZ056-057-062-063-064-067-068-241300-
SOUTH CENTRAL WISCONSIN

CITY           SKY/WX    TMP DP  RH WIND       PRES   REMARKS
REEDSBURG      CLOUDY    40  38  94 E3        29.85F
6HR MIN TEMP:  40; 6HR MAX TEMP:  43;

BARABOO/DELLS  CLOUDY    39  36  87 SE3       29.86S
6HR MIN TEMP:  38; 6HR MAX TEMP:  46;

LONE ROCK      PTCLDY    38  36  92 E3        29.86R FOG
6HR MIN TEMP:  38; 6HR MAX TEMP:  44; 6HR PCP: TRACE;

MINERAL POINT  CLOUDY    43  41  93 CALM      29.85R
MADISON        CLOUDY    41  37  86 NE3       29.87R
6HR MIN TEMP:  40; 6HR MAX TEMP:  46;

MIDDLETON      CLOUDY    42  39  88 CALM      29.87S
6HR MIN TEMP:  42; 6HR MAX TEMP:  46;

WATERTOWN      MOCLDY    41  39  93 CALM      29.89R
6HR MIN TEMP:  40; 6HR MAX TEMP:  45;

MONROE         CLOUDY    46  43  87 S17       29.83R
JANESVILLE     MOCLDY    48  43  81 S7        29.85S
$$

WIZ051-052-058>065-066-070>072-241300-
SOUTHEAST WISCONSIN

CITY           SKY/WX    TMP DP  RH WIND       PRES   REMARKS
MILWAUKEE      MOCLDY    48  41  76 CALM      29.90R
6HR MIN TEMP:  43; 6HR MAX TEMP:  50;

WAUKESHA       PTCLDY    46  39  76 CALM      29.90R
MILWAUKEE/TIMM CLOUDY    45  36  70 NE5       29.90S
RACINE         CLOUDY    49  41  74 SW10      29.88S
6HR MIN TEMP:  41; 6HR MAX TEMP:  50;

KENOSHA        CLOUDY    49  41  74 SW12      29.87F
6HR MIN TEMP:  42; 6HR MAX TEMP:  51;

FOND DU LAC    MOCLDY    39  34  82 SE5       29.88F
6HR MIN TEMP:  38; 6HR MAX TEMP:  40; 6HR PCP: TRACE;

SHEBOYGAN      CLOUDY    37  34  89 CALM      29.90F FOG
6HR MIN TEMP:  35; 6HR MAX TEMP:  38; 6HR PCP: TRACE;

WEST BEND      CLOUDY    37  36  93 CALM      29.90R
JUNEAU         CLOUDY    39  36  89 E3        29.89S
6HR MIN TEMP:  39; 6HR MAX TEMP:  42;

$$

LSZ147-162-241300-
LAKE SUPERIOR

STATION/POSITION TIME  TEMP    WIND        PRES    WAVE
                       AIR SEA DIR/SP/G            HT/PER
                 (UTC) (F)     (DEG/KT/KT) (MB)    (FT/S)
DEVILS ISLAND    1200   33     230/  6/  6 1014.7R
PORT WING        1130   33     300/  2/  2 1014.2R
SAXON HARBOR     1140   33     180/  2/  2 1013.5R
$$

LMZ867-665-643>646-241300-
LAKE MICHIGAN

STATION/POSITION TIME  TEMP    WIND        PRES    WAVE
                       AIR SEA DIR/SP/G            HT/PER
                 (UTC) (F)     (DEG/KT/KT) (MB)    (FT/S)
CHAMBERS ISLAND  1140   35      CALM  /  1


USA.gov is the U.S. government's official web portal to all federal, state and local government web resources and services.